| time (UTC) | temp F | wind direction | speed MPH | gust MPH | rain 1hr in | rain 24hr in | rain mn in | humidity % | barometer mb |
| 20260504200336 | 74 | 210 | 5.0 | 13.0 | 0.00 | 0.00 | 0.00 | 35 | 1009.9 |
| 20260504195323 | 73 | 266 | 5.0 | 11.0 | 0.00 | 0.00 | 0.00 | 36 | 1010.2 |
| 20260504194336 | 73 | 212 | 7.0 | 11.0 | 0.00 | 0.00 | 0.00 | 36 | 1010.4 |
| 20260504193333 | 74 | 225 | 7.0 | 14.0 | 0.00 | 0.00 | 0.00 | 35 | 1010.4 |
| 20260504192329 | 74 | 259 | 5.0 | 13.0 | 0.00 | 0.00 | 0.00 | 38 | 1010.6 |
| 20260504191347 | 73 | 228 | 5.0 | 11.0 | 0.00 | 0.00 | 0.00 | 37 | 1010.7 |
| 20260504190452 | 73 | 232 | 7.0 | 15.0 | 0.00 | 0.00 | 0.00 | 36 | 1010.9 |
| 20260504185347 | 74 | 274 | 4.0 | 9.0 | 0.00 | 0.00 | 0.00 | 36 | 1011.0 |
| 20260504184342 | 72 | 200 | 5.0 | 11.0 | 0.00 | 0.00 | 0.00 | 37 | 1011.1 |
| 20260504183326 | 73 | 259 | 6.0 | 12.0 | 0.00 | 0.00 | 0.00 | 36 | 1011.3 |
| 20260504182339 | 72 | 246 | 4.0 | 10.0 | 0.00 | 0.00 | 0.00 | 36 | 1011.3 |
| 20260504181339 | 72 | 258 | 3.0 | 9.0 | 0.00 | 0.00 | 0.00 | 38 | 1011.4 |
| 20260504180333 | 72 | 146 | 3.0 | 13.0 | 0.00 | 0.00 | 0.00 | 38 | 1011.6 |
| 20260504175345 | 71 | 206 | 7.0 | 16.0 | 0.00 | 0.00 | 0.00 | 36 | 1011.8 |
| 20260504174336 | 72 | 257 | 2.0 | 12.0 | 0.00 | 0.00 | 0.00 | 39 | 1011.8 |
| 20260504173330 | 71 | 252 | 4.0 | 13.0 | 0.00 | 0.00 | 0.00 | 40 | 1012.0 |
| 20260504172329 | 71 | 224 | 4.0 | 12.0 | 0.00 | 0.00 | 0.00 | 36 | 1012.2 |
| 20260504171343 | 71 | 278 | 6.0 | 14.0 | 0.00 | 0.00 | 0.00 | 38 | 1012.3 |
| 20260504170329 | 70 | 287 | 5.0 | 11.0 | 0.00 | 0.00 | 0.00 | 37 | 1012.5 |
| 20260504150326 | 66 | 212 | 4.0 | 10.0 | 0.00 | 0.00 | 0.00 | 39 | 1014.1 |
| 20260504140330 | 62 | 233 | 2.0 | 8.0 | 0.00 | 0.00 | 0.00 | 47 | 1014.3 |
| 20260504130330 | 57 | 139 | 1.0 | 5.0 | 0.00 | 0.00 | 0.00 | 55 | 1014.6 |
| 20260504110322 | 45 | 233 | 0.0 | 1.0 | 0.00 | 0.00 | 0.00 | 75 | 1014.8 |
| 20260504100330 | 38 | 230 | 0.0 | 1.0 | 0.00 | 0.00 | 0.00 | 82 | 1015.0 |
| 20260504080341 | 40 | 230 | 0.0 | 1.0 | 0.00 | 0.00 | 0.00 | 78 | 1015.3 |
| 20260504070329 | 41 | 230 | 0.0 | 1.0 | 0.00 | 0.00 | 0.00 | 79 | 1015.4 |
| 20260504050327 | 43 | 231 | 0.0 | 1.0 | 0.00 | 0.00 | 0.00 | 75 | 1015.5 |
| 20260504045324 | 43 | 231 | 0.0 | 1.0 | 0.00 | 0.00 | 0.00 | 74 | 1015.5 |
| 20260504044339 | 42 | 172 | 0.0 | 0.0 | 0.00 | 0.00 | 0.00 | 75 | 1015.4 |
| 20260504043325 | 43 | 226 | 1.0 | 1.0 | 0.00 | 0.00 | 0.00 | 74 | 1015.4 |
| 20260504041337 | 42 | 238 | 0.0 | 1.0 | 0.00 | 0.00 | 0.00 | 76 | 1015.3 |
| 20260504040331 | 43 | 238 | 0.0 | 1.0 | 0.00 | 0.00 | 0.00 | 75 | 1015.1 |
| 20260504035329 | 43 | 238 | 0.0 | 0.0 | 0.00 | 0.00 | 0.00 | 75 | 1015.1 |
| 20260504034346 | 43 | 238 | 0.0 | 1.0 | 0.00 | 0.00 | 0.00 | 74 | 1015.1 |
| 20260504032330 | 44 | 238 | 0.0 | 1.0 | 0.00 | 0.00 | 0.00 | 73 | 1015.0 |
| 20260504030324 | 45 | 238 | 0.0 | 1.0 | 0.00 | 0.00 | 0.00 | 71 | 1014.9 |
| 20260504025337 | 45 | 238 | 0.0 | 1.0 | 0.00 | 0.00 | 0.00 | 68 | 1014.9 |
| 20260504024336 | 46 | 238 | 0.0 | 1.0 | 0.00 | 0.00 | 0.00 | 67 | 1014.8 |
| 20260504022346 | 46 | 238 | 0.0 | 0.0 | 0.00 | 0.00 | 0.00 | 66 | 1014.8 |
| 20260504021337 | 47 | 238 | 0.0 | 1.0 | 0.00 | 0.00 | 0.00 | 64 | 1014.8 |
| 20260504020328 | 47 | 238 | 0.0 | 1.0 | 0.00 | 0.00 | 0.00 | 64 | 1014.8 |
| 20260504015324 | 47 | 238 | 0.0 | 0.0 | 0.00 | 0.00 | 0.00 | 64 | 1014.8 |
| 20260504014343 | 47 | 238 | 0.0 | 0.0 | 0.00 | 0.00 | 0.00 | 63 | 1014.8 |
| 20260504013330 | 48 | 238 | 0.0 | 0.0 | 0.00 | 0.00 | 0.00 | 59 | 1014.6 |
| 20260504012328 | 49 | 238 | 0.0 | 1.0 | 0.00 | 0.00 | 0.00 | 59 | 1014.6 |
| 20260504011325 | 49 | 238 | 0.0 | 0.0 | 0.00 | 0.00 | 0.00 | 56 | 1014.4 |
| 20260504010337 | 50 | 238 | 0.0 | 1.0 | 0.00 | 0.00 | 0.00 | 55 | 1014.4 |
| 20260504005323 | 51 | 238 | 0.0 | 1.0 | 0.00 | 0.00 | 0.00 | 55 | 1014.4 |
| 20260504004354 | 52 | 238 | 0.0 | 1.0 | 0.00 | 0.00 | 0.00 | 50 | 1014.2 |
| 20260504002324 | 55 | 238 | 0.0 | 1.0 | 0.00 | 0.00 | 0.00 | 46 | 1014.1 |
| 20260504001335 | 56 | 235 | 1.0 | 2.0 | 0.00 | 0.00 | 0.00 | 44 | 1014.0 |
| 20260504000337 | 56 | 239 | 1.0 | 3.0 | 0.00 | 0.00 | 0.00 | 42 | 1013.8 |
| 20260503235323 | 57 | 264 | 2.0 | 5.0 | 0.00 | 0.00 | 0.00 | 41 | 1013.8 |
| 20260503233339 | 58 | 274 | 2.0 | 5.0 | 0.00 | 0.00 | 0.00 | 38 | 1013.4 |
| 20260503232338 | 59 | 259 | 3.0 | 6.0 | 0.00 | 0.00 | 0.00 | 38 | 1013.4 |
| 20260503231333 | 59 | 241 | 3.0 | 6.0 | 0.00 | 0.00 | 0.00 | 37 | 1013.5 |
| 20260503230326 | 59 | 284 | 2.0 | 14.0 | 0.00 | 0.00 | 0.00 | 36 | 1013.5 |
| 20260503225338 | 60 | 255 | 4.0 | 8.0 | 0.00 | 0.00 | 0.00 | 36 | 1013.5 |
| 20260503224324 | 60 | 217 | 3.0 | 12.0 | 0.00 | 0.00 | 0.00 | 36 | 1013.4 |
| 20260503223331 | 60 | 203 | 2.0 | 14.0 | 0.00 | 0.00 | 0.00 | 35 | 1013.4 |
| 20260503221325 | 60 | 243 | 2.0 | 12.0 | 0.00 | 0.00 | 0.00 | 35 | 1013.5 |
| 20260503220321 | 60 | 288 | 4.0 | 9.0 | 0.00 | 0.00 | 0.00 | 36 | 1013.4 |
| 20260503215347 | 60 | 274 | 5.0 | 14.0 | 0.00 | 0.00 | 0.00 | 33 | 1013.5 |
| 20260503213337 | 60 | 277 | 4.0 | 14.0 | 0.00 | 0.00 | 0.00 | 34 | 1013.4 |
| 20260503211334 | 61 | 297 | 5.0 | 13.0 | 0.00 | 0.00 | 0.00 | 33 | 1013.4 |
| 20260503210331 | 61 | 225 | 6.0 | 11.0 | 0.00 | 0.00 | 0.00 | 34 | 1013.4 |
| 20260503205328 | 60 | 317 | 6.0 | 15.0 | 0.00 | 0.00 | 0.00 | 34 | 1013.4 |
| 20260503204343 | 60 | 287 | 4.0 | 11.0 | 0.00 | 0.00 | 0.00 | 34 | 1013.4 |
| 20260503203323 | 60 | 17 | 5.0 | 10.0 | 0.00 | 0.00 | 0.00 | 35 | 1013.4 |
| 20260503202342 | 60 | 273 | 7.0 | 12.0 | 0.00 | 0.00 | 0.00 | 34 | 1013.5 |